Torna al catalogo

FREGAT R/B

LostMEO
NORAD 65591·ROCKET BODY·🇷🇺 Russia

Lanciato Sep 13, 2025 da Plesetsk Cosmodrome

Loading…

Prossimi Passaggi (prossime 24 ore)

TLE

ObsoletoSource: Space-Track

Epoca: Jun 22, 2026, 22:41 UTC

1 65591U 25206C   26173.94520198 -.00000078  00000-0  00000-0 0  9994
2 65591  64.6387 314.6277 0010646 176.1218 183.8795  2.14651457  6085

Traccia FREGAT R/B in tempo reale con AllMySat

Download on the App Store